Brno, Czech Republic

3:41 PM CEST on August 16, 2017 (GMT +0200)
Turany

Weather History for LKTB - December, 2012

Change the Weather History Date:

Monday, December 31, 2012

  Actual Average Record
Temperature  
Mean Temperature 30 °F -  
Max Temperature 38 °F 32 °F - ()
Min Temperature 23 °F 23 °F - ()
Degree Days  
Heating Degree Days 34    
Moisture  
Dew Point 26 °F    
Average Humidity 83    
Maximum Humidity 93    
Minimum Humidity 63    
Precipitation  
Precipitation 0.00 in 0.03 in - ()
Sea Level Pressure  
Sea Level Pressure 30.20 in    
Wind  
Wind Speed 3 mph ()    
Max Wind Speed 7 mph    
Max Gust Speed -    
Visibility 3.7 miles    
Events      
T = Trace of Precipitation, MM = Missing Value Source: Averaged Metar Reports

Daily Weather History Graph

Daily Weather History Graph

Search for Another Location

Airport or City:

Trip Planner

Search our weather history database for the weather conditions in past years. The results will help you decide how hot, cold, wet, or windy it might be!

Date:

Astronomy

Dec. 31, 2012 Rise Set
Actual Time 7:47 AM CET 4:04 PM CET
Civil Twilight 7:10 AM CET 4:42 PM CET
Nautical Twilight 6:30 AM CET 5:22 PM CET
Astronomical Twilight 5:51 AM CET 6:01 PM CET
Moon 7:36 PM CET (12/31) 9:03 AM CET (12/31)
Length of Visible Light 9h 31m
Length of Day
8h 17m
Waning Gibbous, 92% of the Moon is Illuminated
Dec 31
Waning Gibbous
Jan 5
Last Quarter
Jan 11
New
Jan 19
First Quarter
Jan 27
Full

Hourly Weather History & Observations

Time (CET) Temp. Windchill Dew Point Humidity Pressure Visibility Wind Dir Wind Speed Gust Speed Precip Events Conditions
12:00 AM 28.4 °F 24.6 °F 24.8 °F 86% 30.27 in 3.1 mi NE 3.5 mph - N/A   Partly Cloudy
12:30 AM 28.4 °F 23.3 °F 24.8 °F 86% 30.27 in 3.1 mi NNE 4.6 mph - N/A   Mist
1:00 AM 28 °F - 24 °F 81% 30.34 in 3 mi NE 6.7 mph - -   Mist
1:00 AM 28.4 °F 24.6 °F 24.8 °F 86% 30.27 in 3.1 mi ENE 3.5 mph - N/A   Mist
1:30 AM 26.6 °F 21.2 °F 24.8 °F 93% 30.27 in 3.1 mi NNE 4.6 mph - N/A   Mist
2:00 AM 26.6 °F 22.6 °F 24.8 °F 93% 30.27 in 3.1 mi NE 3.5 mph - N/A   Mist
2:30 AM 28.4 °F 23.3 °F 24.8 °F 86% 30.27 in 3.7 mi NNE 4.6 mph - N/A   Unknown
3:00 AM 28.4 °F 23.3 °F 24.8 °F 86% 30.27 in 3.7 mi NNE 4.6 mph - N/A   Unknown
3:30 AM 26.6 °F 20.0 °F 23.0 °F 86% 30.27 in 3.7 mi NE 5.8 mph - N/A   Unknown
4:00 AM 26.6 °F 21.2 °F 23.0 °F 86% 30.27 in 3.7 mi NNE 4.6 mph - N/A   Unknown
4:30 AM 24.8 °F - 23.0 °F 93% 30.27 in 3.7 mi NE 2.3 mph - N/A   Scattered Clouds
5:00 AM 26.6 °F 22.6 °F 23.0 °F 86% 30.27 in 3.7 mi NE 3.5 mph - N/A   Partly Cloudy
5:30 AM 24.8 °F 19.1 °F 23.0 °F 93% 30.24 in 3.7 mi NNE 4.6 mph - N/A   Partly Cloudy
6:00 AM 24.8 °F 20.5 °F 21.2 °F 86% 30.24 in 3.7 mi NNE 3.5 mph - N/A   Partly Cloudy
6:30 AM 24.8 °F - 21.2 °F 86% 30.27 in 3.1 mi Variable 2.3 mph - N/A   Partly Cloudy
7:00 AM 23 °F - 20 °F 82% 30.34 in 3 mi West 4.5 mph - -   Mist
7:00 AM 23.0 °F 18.4 °F 21.2 °F 93% 30.27 in 3.1 mi West 3.5 mph - N/A   Partly Cloudy
7:30 AM 23.0 °F - 21.2 °F 93% 30.27 in - WNW 2.3 mph - N/A   Partly Cloudy
7:42 AM 23.0 °F 18.4 °F 21.2 °F 93% 30.27 in 1.9 mi NE 3.5 mph - N/A   Partly Cloudy
8:00 AM 23.0 °F 17.0 °F 21.2 °F 93% 30.27 in - NE 4.6 mph - N/A   Mist
8:30 AM 23.0 °F 17.0 °F 21.2 °F 93% 30.27 in 2.5 mi NNE 4.6 mph - N/A   Mist
9:00 AM 24.8 °F - 21.2 °F 86% 30.27 in 2.5 mi Calm Calm - N/A   Partly Cloudy
9:30 AM 24.8 °F - 23.0 °F 93% 30.24 in 2.5 mi Variable 2.3 mph - N/A   Mist
10:00 AM 28.4 °F - 24.8 °F 86% 30.27 in 2.5 mi Variable 2.3 mph - N/A   Mist
10:30 AM 30.2 °F - 26.6 °F 86% 30.27 in 3.1 mi Variable 2.3 mph - N/A   Mist
11:00 AM 32.0 °F - 26.6 °F 80% 30.24 in 3.7 mi Variable 1.2 mph - N/A   Unknown
11:30 AM 33.8 °F - 26.6 °F 75% 30.24 in 4.3 mi Variable 1.2 mph - N/A   Unknown
12:00 PM 33.8 °F - 28.4 °F 81% 30.24 in 5.0 mi Variable 1.2 mph - N/A   Unknown
12:30 PM 37.4 °F - 28.4 °F 70% 30.21 in - Variable 1.2 mph - N/A   Clear
1:00 PM 37 °F - 29 °F 63% 30.26 in 6 mi South 2.2 mph - -   Clear
1:00 PM 37.4 °F - 30.2 °F 75% 30.21 in - Variable 2.3 mph - N/A   Clear
1:30 PM 35.6 °F - 28.4 °F 75% 30.18 in - Variable 1.2 mph - N/A   Clear
2:00 PM 35.6 °F - 30.2 °F 81% 30.18 in - SSE 2.3 mph - N/A   Clear
2:30 PM 37.4 °F - 30.2 °F 75% 30.18 in - NNE 2.3 mph - N/A   Clear
3:00 PM 37.4 °F 34.9 °F 30.2 °F 75% 30.15 in - NE 3.5 mph - N/A   Clear
3:30 PM 35.6 °F 31.7 °F 30.2 °F 81% 30.15 in - NNE 4.6 mph - N/A   Clear
4:00 PM 35.6 °F 31.7 °F 30.2 °F 81% 30.15 in - NE 4.6 mph - N/A   Clear
4:30 PM 35.6 °F 31.7 °F 30.2 °F 81% 30.12 in - NE 4.6 mph - N/A   Clear
5:00 PM 37.4 °F - 30.2 °F 75% 30.12 in - Variable 2.3 mph - N/A   Clear
5:30 PM 35.6 °F - 30.2 °F 81% 30.12 in - Variable 2.3 mph - N/A   Clear
6:00 PM 33.8 °F 30.8 °F 28.4 °F 81% 30.12 in - SE 3.5 mph - N/A   Clear
6:30 PM 35.6 °F - 28.4 °F 75% 30.12 in - Variable 2.3 mph - N/A   Clear
7:00 PM 35 °F - 28 °F 67% 30.17 in 12 mi East 2.2 mph - -   Clear
7:00 PM 35.6 °F 31.7 °F 28.4 °F 75% 30.12 in - NE 4.6 mph - N/A   Clear
7:30 PM 32.0 °F 26.4 °F 28.4 °F 87% 30.09 in - East 5.8 mph - N/A   Clear
8:00 PM 32.0 °F 26.4 °F 28.4 °F 87% 30.09 in - ENE 5.8 mph - N/A   Clear
8:30 PM 33.8 °F 28.6 °F 26.6 °F 75% 30.09 in - East 5.8 mph - N/A   Clear
9:00 PM 32.0 °F 28.7 °F 26.6 °F 80% 30.09 in - East 3.5 mph - N/A   Clear
9:30 PM 32.0 °F 28.7 °F 26.6 °F 80% 30.06 in - ENE 3.5 mph - N/A   Clear
10:00 PM 33.8 °F 30.8 °F 28.4 °F 81% 30.06 in - NE 3.5 mph - N/A   Clear
10:30 PM 33.8 °F 30.8 °F 28.4 °F 81% 30.06 in - ENE 3.5 mph - N/A   Clear
11:00 PM 32.0 °F 25.6 °F 26.6 °F 80% 30.04 in - East 6.9 mph - N/A   Clear
11:30 PM 30.2 °F 23.4 °F 26.6 °F 86% 30.04 in - East 6.9 mph - N/A   Clear